169P/NEAT (2005)

Japanese version
Home page
Updated on March 7, 2020

---------------------------------------------------------------------

* Profile

* Pictures

* Orbital Elements

Epoch 2005 Sept. 27.0 TT = JDT 2453640.5
T 2005 Sept. 17.85868 TT                                MPCW
q   0.6053281            (2000.0)            P               Q
n   0.23460350     Peri.  217.92681     +0.82656396     -0.56269608
a   2.6036327      Node   176.24605     +0.55238413     +0.80661260
e   0.7675063      Incl.   11.31897     +0.10799898     +0.18096746
P   4.20
From 1096 observations 1989 Mar. 7-2015 Mar. 24, mean residual 0".4.

* Finding Charts

* Magnitudes Graph

        H = 15.3  G = 0.15                [   ,-60]  (             - 2005 July 19)
        m1 = 15.8 + 5 log d + 20.0 log r  [-60, 60]  (2005 July 19 - 2005 Nov. 16)
        H = 15.3  G = 0.15                [ 60,   ]  (2005 Nov. 16 -             )

        * Green curve is:  H = 15.3  G = 0.15

---------------------------------------------------------------------

The orbital elements are published on M.P.E.C. 2015-G03.
The charts are made with StellaNavigator Ver.2.0 for Windows (AstroArts / ASCII).
The magnitudes graphs are made with Comet for Windows.

---------------------------------------------------------------------

Copyright(C) Seiichi Yoshida (comet@aerith.net). All rights reserved.